All Stations Radar Satellite Rainfall Station Map Enhanced Site
Observations: Wind Gusts Humidity Temperature    
Forecasts: Wind Gusts Humidity Temperature    

Valley Center (907, 908, 909, 1030, 6926) Station Data (Station Map)

Red Flag Warning: No
Fire Weather Zone: 250
SDGE Region: North East
Lat/Lon: 33.236/-117.001

Observations

Time (PST)Wind Spd/GustTempRHFuel Moisture
11/27 3:20amSE 2 G 568°13%-
11/27 3:10amSE 2 G 466°14%-
11/27 3:00amSE 2 G 567°14%-
11/27 2:50amSE 2 G 566°14%-
11/27 2:40amSE 1 G 466°14%-
11/27 2:30amSE 1 G 368°13%-
11/27 2:20amSE 1 G 469°12%-
11/27 2:10amSE 2 G 567°13%-
11/27 2:00amSE 2 G 468°13%-
11/27 1:50amE 2 G 467°13%-
11/27 1:40amESE 1 G 466°14%-
11/27 1:30amESE 2 G 467°13%-
11/27 1:20amSE 2 G 469°13%-
11/27 1:10amESE 3 G 567°13%-
11/27 1:00amSE 2 G 467°14%-
11/27 12:50amESE 2 G 670°12%-
11/27 12:40amESE 2 G 566°14%-
11/27 12:30amSE 2 G 469°13%-
11/27 12:20amSE 2 G 568°13%-
11/27 12:10amESE 3 G 766°14%-
11/27 12:00amSE 2 G 468°13%-
11/26 11:50pmE 2 G 469°12%-
11/26 11:40pmENE 2 G 667°13%-
11/26 11:30pmE 2 G 567°13%-
11/26 11:20pmENE 1 G 367°13%-
11/26 11:00pmENE 1 G 468°13%-
11/26 10:50pmENE 2 G 367°14%-
11/26 10:40pmESE 3 G 567°13%-
11/26 10:30pmESE 1 G 367°14%-
11/26 10:20pmENE 1 G 468°13%-
11/26 10:10pmE 2 G 368°13%-
11/26 10:00pmESE 1 G 469°13%-
11/26 9:50pmE 2 G 369°13%-
11/26 9:40pmE 1 G 367°13%-
11/26 9:30pmE 1 G 368°13%-
11/26 9:20pmE 1 G 268°13%-
11/26 9:10pmE 2 G 468°13%-
11/26 9:00pmE 2 G 368°13%-
11/26 8:50pmE 2 G 369°13%-
11/26 8:40pmESE 2 G 470°13%-
11/26 8:30pmESE 2 G 468°14%-
11/26 8:20pmSE 1 G 265°17%-
11/26 8:10pmESE 1 G 368°15%-
11/26 8:00pmE 1 G 366°15%-
11/26 7:50pmSE 1 G 368°15%-
11/26 7:40pmE 1 G 270°13%-
11/26 7:30pmE 1 G 269°13%-
11/26 7:20pmE 1 G 269°13%-
11/26 7:10pmSSE 1 G 268°15%-
11/26 7:00pmSSE 1 G 268°16%-
11/26 6:50pmE 1 G 371°13%-
11/26 6:40pmE 1 G 371°13%-
11/26 6:30pmE 1 G 270°14%-
11/26 6:20pmNE 2 G 669°16%-
11/26 6:10pmE 1 G 468°19%-
11/26 6:00pmESE 1 G 369°18%-
11/26 5:50pmNE 1 G 169°20%-
11/26 5:40pmE 1 G 170°19%-
11/26 5:30pmSE 1 G 270°20%-
11/26 5:20pmNNE 1 G 271°18%-
11/26 5:10pmN 2 G 373°17%-
11/26 5:00pmNNE 1 G 275°16%-
11/26 4:50pmNNE 1 G 278°14%-
11/26 4:40pmNW 1 G 380°12%-
11/26 4:30pmNW 2 G 381°12%-
11/26 4:20pmNW 2 G 382°11%-
11/26 4:10pmNW 2 G 483°11%-
11/26 4:00pmWNW 2 G 583°10%-
11/26 3:50pmWNW 3 G 584°10%-
11/26 3:40pmW 3 G 684°9%-
11/26 3:30pmW 3 G 685°9%-
11/26 3:20pmW 3 G 685°8%-
11/26 3:10pmW 3 G 785°8%-
11/26 3:00pmWNW 3 G 785°8%-
11/26 2:50pmNW 2 G 786°8%-
11/26 2:40pmNW 3 G 785°8%-
11/26 2:30pmWNW 2 G 685°8%-
11/26 2:20pmW 3 G 885°8%-
11/26 2:10pmNW 3 G 885°8%-
11/26 2:00pmNW 4 G 985°8%-
11/26 1:50pmNW 4 G 984°7%-
11/26 1:40pmNW 4 G 1185°7%-
11/26 1:30pmW 4 G 985°7%-
11/26 1:20pmWNW 5 G 885°7%-
11/26 1:10pmNW 4 G 985°7%-
11/26 1:00pmNW 4 G 785°7%-
11/26 12:50pmNNW 4 G 884°7%-
11/26 12:40pmNNW 6 G 984°7%-
11/26 12:30pmNW 4 G 884°7%-
11/26 12:20pmNW 4 G 884°7%-
11/26 12:10pmNW 3 G 784°7%-
11/26 12:00pmW 4 G 884°8%-
11/26 11:50amWNW 4 G 1083°8%-
11/26 11:40amWNW 3 G 884°8%-
11/26 11:30amNW 3 G 784°7%-
11/26 11:20amW 2 G 584°7%-
11/26 11:10amNW 3 G 783°7%-
11/26 11:00amWNW 2 G 683°7%-
11/26 10:50amW 2 G 782°7%-
11/26 10:40amWNW 2 G 582°7%-
11/26 10:30amWNW 3 G 681°7%-
11/26 10:20amW 2 G 681°8%-
11/26 10:10amNW 3 G 780°8%-
11/26 10:00amSW 1 G 381°7%-
11/26 9:50amWSW 2 G 480°8%-
11/26 9:40amSW 1 G 381°9%-
11/26 9:30amSSE 2 G 581°10%-
11/26 9:20amSSE 1 G 481°11%-
11/26 9:10amSE 1 G 279°11%-
11/26 9:00amSE 1 G 278°13%-
11/26 8:50amSSE 1 G 276°13%-
11/26 8:40amSE 1 G 274°14%-
11/26 8:30amENE 1 G 373°14%-
11/26 8:20amENE 2 G 471°15%-
11/26 8:10amNNE 2 G 368°17%-
11/26 8:00amNE 1 G 266°18%-
11/26 7:50amE 1 G 166°17%-
11/26 7:40amNE 1 G 262°19%-
11/26 7:30amNE 1 G 261°20%-
11/26 7:20amN 1 G 257°23%-
11/26 7:10amNE 1 G 358°22%-
11/26 7:00amWSW 1 G 256°22%-
11/26 6:50amNE 1 G 455°24%-
11/26 6:40amNNE 1 G 256°23%-
11/26 6:30amNNE 2 G 455°24%-
11/26 6:20amNNE 2 G 457°20%-
11/26 6:10amN 2 G 357°19%-
11/26 6:00amNNW 1 G 257°18%-
11/26 5:50amNE 1 G 259°17%-
11/26 5:40amENE 1 G 259°16%-
11/26 5:30amENE 1 G 357°18%-
11/26 5:20amNNE 1 G 254°23%-
11/26 5:10amNE 1 G 256°20%-
11/26 5:00amENE 1 G 256°18%-
11/26 4:50amENE 1 G 155°19%-
11/26 4:40amENE 1 G 256°19%-
11/26 4:30amE 1 G 353°22%-
11/26 4:20amNNE 1 G 254°20%-
11/26 4:10amNNE 1 G 256°17%-
11/26 4:00amE 1 G 358°15%-
11/26 3:50amE 1 G 359°14%-
11/26 3:40amSE 1 G 359°14%-
11/26 3:30amESE 2 G 359°14%-
11/26 3:20amE 2 G 559°14%-
11/26 3:10amE 2 G 459°14%-
11/26 3:00amE 2 G 460°14%-
11/26 2:50amENE 2 G 461°13%-
11/26 2:40amE 3 G 662°12%-
11/26 2:30amE 2 G 460°13%-
11/26 2:20amE 2 G 559°14%-
11/26 2:10amE 2 G 358°14%-
11/26 2:00amE 2 G 458°14%-
11/26 1:50amESE 2 G 359°14%-
11/26 1:40amE 2 G 560°13%-
11/26 1:30amE 2 G 458°14%-
11/26 1:20amSE 1 G 256°17%-
11/26 1:10amE 1 G 257°17%-
11/26 1:00amNE 2 G 358°14%-
11/26 12:50amENE 1 G 358°15%-
11/26 12:40amE 1 G 459°14%-
11/26 12:30amE 1 G 259°14%-
11/26 12:20amE 1 G 358°15%-
11/26 12:10amE 2 G 458°15%-
11/26 12:00amENE 1 G 457°17%-
11/25 11:50pmNE 2 G 456°18%-
11/25 11:40pmNE 2 G 356°17%-
11/25 11:30pmNE 1 G 256°18%-
11/25 11:20pmNE 1 G 257°16%-
11/25 11:10pmNE 1 G 258°15%-
11/25 11:00pmENE 1 G 259°14%-
11/25 10:50pmENE 1 G 258°14%-
11/25 10:40pmNE 1 G 257°16%-
11/25 10:30pmE 1 G 157°16%-
11/25 10:20pmENE 1 G 357°17%-
11/25 10:10pmNE 1 G 258°16%-
11/25 10:00pmNE 1 G 357°17%-
11/25 9:50pmNNE 2 G 355°20%-
11/25 9:40pmNNE 1 G 254°21%-
11/25 9:30pmNNE 2 G 355°19%-
11/25 9:20pmNNE 1 G 157°17%-
11/25 9:10pmN 1 G 259°15%-
11/25 9:00pmNNW 1 G 158°17%-
11/25 8:50pmE 1 G 158°17%-
11/25 8:40pmE 1 G 259°16%-
11/25 8:30pmENE 1 G 358°17%-
11/25 8:20pmE 1 G 258°18%-
11/25 8:10pmESE 1 G 256°21%-
11/25 8:00pmNE 1 G 258°18%-
11/25 7:50pmNE 2 G 358°19%-
11/25 7:40pmNNE 2 G 358°20%-
11/25 7:30pmNNE 2 G 357°21%-
11/25 7:20pmENE 1 G 261°16%-
11/25 7:10pmNE 1 G 360°17%-
11/25 7:00pmESE 1 G 256°24%-
11/25 6:50pmN 1 G 357°22%-
11/25 6:40pmNNE 2 G 358°20%-
11/25 6:30pmNNE 3 G 458°21%-
11/25 6:20pmN 2 G 258°21%-
11/25 6:10pmNE 1 G 358°21%-
11/25 6:00pmNNE 2 G 359°21%-
11/25 5:50pmNE 1 G 258°22%-
11/25 5:40pmNNE 2 G 360°21%-
11/25 5:30pmNNE 2 G 361°20%-
11/25 5:20pmNNE 1 G 263°18%-
11/25 5:10pmN 1 G 265°15%-
11/25 5:00pmNNE 1 G 267°14%-